This is the latest recevied weather packets stored in our database for station/object EA1RCG-11. If no packets are shown the sender has not sent any weather packets the latest 10 day(s).
| Time | Temp. | Humidity | Pressure | Rain* | Wind** | Luminosity | Snow |
|---|---|---|---|---|---|---|---|
| 1787882846 | 13.89° C | 60% | 979.7 hPa | - | - | - | - |
| 1787881046 | 13.89° C | 60% | 979.9 hPa | - | - | - | - |
| 1787879246 | 14.44° C | 60% | 979.7 hPa | - | - | - | - |
| 1787877446 | 15° C | 60% | 979.7 hPa | - | - | - | - |
| 1787875645 | 15° C | 60% | 979.6 hPa | - | - | - | - |
| 1787873845 | 15.56° C | 59% | 979.6 hPa | - | - | - | - |
| 1787872045 | 15.56° C | 59% | 979.4 hPa | - | - | - | - |
| 1787870245 | 16.67° C | 59% | 979.1 hPa | - | - | - | - |
| 1787868445 | 17.22° C | 58% | 978.9 hPa | - | - | - | - |
| 1787866645 | 17.78° C | 57% | 979 hPa | - | - | - | - |
| 1787864845 | 17.78° C | 57% | 978.6 hPa | - | - | - | - |
| 1787863045 | 18.33° C | 57% | 978.4 hPa | - | - | - | - |
| 1787861245 | 18.33° C | 57% | 977.8 hPa | - | - | - | - |
| 1787859445 | 17.78° C | 57% | 977.2 hPa | - | - | - | - |
| 1787857644 | 18.33° C | 57% | 976.4 hPa | - | - | - | - |
| 1787855844 | 18.33° C | 57% | 975.8 hPa | - | - | - | - |
| 1787854044 | 18.89° C | 57% | 975.1 hPa | - | - | - | - |
| 1787852244 | 21.11° C | 54% | 974.5 hPa | - | - | - | - |
| 1787850444 | 21.67° C | 53% | 973.8 hPa | - | - | - | - |
| 1787848644 | 21.67° C | 54% | 973.9 hPa | - | - | - | - |
| 1787846844 | 22.22° C | 54% | 973.9 hPa | - | - | - | - |
| 1787845044 | 23.33° C | 52% | 973.2 hPa | - | - | - | - |
| 1787843244 | 22.22° C | 53% | 972.8 hPa | - | - | - | - |
| 1787841443 | 22.22° C | 54% | 972.7 hPa | - | - | - | - |
| 1787839643 | 22.22° C | 54% | 973.1 hPa | - | - | - | - |
* Rain since midnight (hover to see other rain measurements)
** Current wind speed in m/s (hover to see current wind gust speed)